Weather History for KGUY - December, 2014

Change the Weather History Date:

Thursday, December 18, 2014

  Actual Average Record
Temperature  
Mean Temperature 36 °F 34 °F  
Max Temperature 38 °F 47 °F 68 °F (2008)
Min Temperature 33 °F 21 °F 19 °F (2005)
Degree Days  
Heating Degree Days 29 31  
Month to date heating degree days 397 522  
Since 1 July heating degree days 1204 1413  
Cooling Degree Days 0 0  
Month to date cooling degree days 0 0  
Year to date cooling degree days 1706 1482  
Moisture  
Dew Point 31 °F    
Average Humidity 86    
Maximum Humidity 96    
Minimum Humidity 76    
Precipitation  
Precipitation 0.01 in 0.01 in - ()
Month to date precipitation 0.76 0.40  
Year to date precipitation 13.07 19.06  
Snow  
Snow 0.00 in - - ()
Month to date snowfall 0.0  
Since 1 July snowfall 3.0  
Snow Depth 0.00 in    
Sea Level Pressure  
Sea Level Pressure 30.10 in    
Wind  
Wind Speed 6 mph (North)    
Max Wind Speed 13 mph    
Max Gust Speed 16 mph    
Visibility 10 miles    
Events Rain    
T = Trace of Precipitation, MM = Missing Value Source: NWS Daily Summary

Daily Weather History Graph

Daily Weather History Graph

Search for Another Location

Airport or City:

Trip Planner

Search our weather history database for the weather conditions in past years. The results will help you decide how hot, cold, wet, or windy it might be!

Date:

Astronomy

Dec. 18, 2014 Rise Set
Actual Time 7:53 AM CST 5:32 PM CST
Civil Twilight 7:24 AM CST 6:01 PM CST
Nautical Twilight 6:51 AM CST 6:33 PM CST
Astronomical Twilight 6:20 AM CST 7:05 PM CST
Moon 4:12 AM CST (12/18) 3:10 PM CST (12/18)
Length of Visible Light 10h 37m
Length of Day
9h 39m
Waning Crescent, 13% of the Moon is Illuminated
Dec 18
Waning Crescent
Dec 21
New
Dec 28
First Quarter
Jan 4
Full
Jan 13
Last Quarter

Hourly Weather History & Observations

Time (CST) Temp. Windchill Dew Point Humidity Pressure Visibility Wind Dir Wind Speed Gust Speed Precip Events Conditions
12:11 AM 35.1 °F 30.1 °F 33.1 °F 92% 30.02 in 8.0 mi WNW 5.8 mph - 0.00 in Rain Light Rain
12:53 AM 34.0 °F 26.6 °F 32.0 °F 92% 30.01 in 9.0 mi NNW 9.2 mph - 0.01 in   Overcast
1:53 AM 34.0 °F 28.8 °F 32.0 °F 92% 30.02 in 9.0 mi NNW 5.8 mph - N/A   Overcast
2:53 AM 34.0 °F 26.0 °F 32.0 °F 92% 30.03 in 6.0 mi North 10.4 mph - N/A   Overcast
3:53 AM 34.0 °F 26.6 °F 30.9 °F 89% 30.04 in 8.0 mi NW 9.2 mph - N/A   Overcast
4:53 AM 34.0 °F 26.6 °F 30.0 °F 85% 30.04 in 10.0 mi NW 9.2 mph - N/A   Overcast
5:53 AM 34.0 °F 26.0 °F 30.0 °F 85% 30.06 in 10.0 mi NW 10.4 mph - N/A   Overcast
6:31 AM 33.1 °F 23.9 °F 30.0 °F 89% 30.06 in 9.0 mi NW 12.7 mph - N/A   Overcast
6:51 AM 33.8 °F 25.8 °F 30.2 °F 87% 30.07 in 10.0 mi NNW 10.4 mph - N/A   Overcast
6:53 AM 33.1 °F 24.9 °F 30.0 °F 89% 30.08 in 10.0 mi NNW 10.4 mph - N/A   Overcast
7:53 AM 33.1 °F 24.9 °F 30.9 °F 92% 30.11 in 10.0 mi NW 10.4 mph - N/A   Overcast
8:26 AM 34.0 °F 26.6 °F 30.9 °F 89% 30.10 in 10.0 mi NNW 9.2 mph - N/A   Overcast
8:53 AM 34.0 °F 26.6 °F 30.9 °F 89% 30.12 in 10.0 mi NNW 9.2 mph - N/A   Overcast
9:53 AM 35.1 °F 28.6 °F 32.0 °F 89% 30.13 in 10.0 mi North 8.1 mph - N/A   Overcast
10:27 AM 35.1 °F 29.3 °F 32.0 °F 89% 30.13 in 10.0 mi North 6.9 mph - N/A   Overcast
10:49 AM 35.6 °F 29.9 °F 32.0 °F 87% 30.14 in 10.0 mi North 6.9 mph - N/A   Overcast
10:53 AM 36.0 °F 31.1 °F 32.0 °F 86% 30.15 in 10.0 mi NNE 5.8 mph - N/A   Overcast
11:23 AM 36.0 °F 31.1 °F 32.0 °F 86% 30.14 in 10.0 mi North 5.8 mph - N/A   Overcast
11:53 AM 36.0 °F 32.1 °F 30.9 °F 82% 30.15 in 10.0 mi North 4.6 mph - N/A   Overcast
12:00 PM 36.0 °F 31.1 °F 30.9 °F 82% 30.13 in 10.0 mi NNW 5.8 mph - N/A   Overcast
12:53 PM 37.0 °F 33.3 °F 30.9 °F 79% 30.13 in 10.0 mi North 4.6 mph - N/A   Overcast
1:53 PM 37.0 °F 33.3 °F 30.9 °F 79% 30.10 in 10.0 mi East 4.6 mph - N/A   Overcast
2:53 PM 37.0 °F 34.5 °F 30.9 °F 79% 30.10 in 10.0 mi ENE 3.5 mph - N/A   Overcast
3:53 PM 37.9 °F 35.5 °F 30.9 °F 76% 30.10 in 10.0 mi NE 3.5 mph - N/A   Overcast
4:53 PM 37.9 °F 35.5 °F 30.9 °F 76% 30.10 in 10.0 mi NE 3.5 mph - N/A   Overcast
5:53 PM 37.0 °F 32.4 °F 32.0 °F 82% 30.12 in 10.0 mi East 5.8 mph - N/A   Overcast
6:53 PM 37.0 °F 31.6 °F 32.0 °F 82% 30.15 in 10.0 mi SE 6.9 mph - N/A   Overcast
7:53 PM 36.0 °F 31.1 °F 32.0 °F 86% 30.17 in 10.0 mi SE 5.8 mph - N/A   Overcast
8:53 PM 36.0 °F 33.3 °F 32.0 °F 86% 30.16 in 10.0 mi SE 3.5 mph - N/A   Overcast
9:53 PM 37.0 °F - 32.0 °F 82% 30.15 in 10.0 mi Calm Calm - N/A   Overcast
10:53 PM 37.0 °F - 30.9 °F 79% 30.16 in 10.0 mi Calm Calm - N/A   Overcast
11:53 PM 37.0 °F - 32.0 °F 82% 30.18 in 10.0 mi Calm Calm - N/A   Overcast